This is the latest recevied weather packets stored in our database for station/object KM4CNW. If no packets are shown the sender has not sent any weather packets the latest 10 day(s).
| Time | Temp. | Humidity | Pressure | Rain* | Wind** | Luminosity | Snow |
|---|---|---|---|---|---|---|---|
| 1777230620 | 22.22° C | 58% | 1009.2 hPa | 0 mm | - | 609 W/m² | - |
| 1777230315 | 22.22° C | 57% | 1009.1 hPa | 0 mm | - | 836 W/m² | - |
| 1777229709 | 21.67° C | 59% | 1009.3 hPa | 0 mm | - | 879 W/m² | - |
| 1777227283 | 20.56° C | 65% | 1009.5 hPa | 0 mm | - | 422 W/m² | - |
| 1777226374 | 20° C | 69% | 1009.7 hPa | 0 mm | - | 305 W/m² | - |
| 1777225161 | 19.44° C | 67% | 1009.6 hPa | 0 mm | - | 416 W/m² | - |
| 1777224857 | 19.44° C | 70% | 1009.6 hPa | 0 mm | - | 449 W/m² | - |
| 1777224553 | 19.44° C | 69% | 1009.7 hPa | 0 mm | - | 400 W/m² | - |
| 1777221521 | 18.33° C | 77% | 1009.5 hPa | 0 mm | - | 142 W/m² | - |
| 1777220007 | 18.33° C | 79% | 1009.7 hPa | 0 mm | - | 78 W/m² | - |
| 1777219704 | 18.33° C | 79% | 1009.4 hPa | 0 mm | - | 175 W/m² | - |
| 1777219402 | 17.78° C | 80% | 1009.4 hPa | 0 mm | - | 255 W/m² | - |
| 1777219098 | 17.78° C | 84% | 1009.4 hPa | 0 mm | - | 251 W/m² | - |
| 1777218489 | 17.78° C | 83% | 1009.3 hPa | 0 mm | - | 95 W/m² | - |
| 1777218185 | 17.78° C | 84% | 1009.4 hPa | 0 mm | - | 87 W/m² | - |
| 1777217881 | 17.78° C | 84% | 1009.1 hPa | 0 mm | - | 127 W/m² | - |
| 1777217576 | 18.33° C | 82% | 1009.3 hPa | 0 mm | - | 106 W/m² | - |
| 1777217273 | 18.33° C | 83% | 1009 hPa | 0 mm | - | 242 W/m² | - |
| 1777216969 | 17.78° C | 85% | 1009.1 hPa | 0 mm | - | 564 W/m² | - |
| 1777216666 | 17.78° C | 87% | 1008.8 hPa | 0 mm | - | 176 W/m² | - |
| 1777216362 | 16.67° C | 90% | 1008.8 hPa | 0 mm | - | 1051 W/m² | - |
| 1777216061 | 17.22° C | 90% | 1009.1 hPa | 0 mm | - | 95 W/m² | - |
| 1777215757 | 17.22° C | 89% | 1008.8 hPa | 0 mm | - | 64 W/m² | - |
| 1777214240 | 17.22° C | 92% | 1008.7 hPa | 0 mm | - | 133 W/m² | - |
| 1777213938 | 17.22° C | 90% | 1008.7 hPa | 0 mm | - | 78 W/m² | - |
* Rain latest hour (hover to see other rain measurements)
** Current wind speed in m/s (hover to see current wind gust speed)